Location: Brahman Valley
(40.6513°N, 111.8855°W)
Time: 09:43:41
(UTC+00:00)

Tiros 1 despin weight - Pass Details

Date: 17 May 2021
Orbit: 594 x 641 km, 48.2° (Epoch: 22 June)

Event Time Altitude Azimuth Distance (km) Brightness Sun altitude
Rises 05:37:51 0° 293° (WNW) 2,936 ? -25.1°
Reaches altitude 10° 05:40:22 10° 302° (WNW) 2,030 ? -25.3°
Maximum altitude 05:44:39 34° 8° (N) 1,053 ? -25.7°
Enters shadow 05:47:08 20° 60° (ENE) 1,460 ? -25.9°
Drops below altitude 10° 05:48:56 10° 74° (ENE) 2,030 - -26.0°
Sets 05:51:26 0° 84° (E) 2,935 - -26.2°
